This is the latest recevied weather packets stored in our database for station/object IU5JAE-13. If no packets are shown the sender has not sent any weather packets the latest 10 day(s).
| Time | Temp. | Humidity | Pressure | Rain* | Wind** | Luminosity | Snow |
|---|---|---|---|---|---|---|---|
| 1788175222 | 27.22° C | 68% | 1018.2 hPa | 0 mm | - | 601 W/m² | - |
| 1788174620 | 26.11° C | 70% | 1018.1 hPa | 0 mm | - | 596 W/m² | - |
| 1788174017 | 26.11° C | 70% | 1018.2 hPa | 0 mm | - | 596 W/m² | - |
| 1788173435 | 26.11° C | 71% | 1018.2 hPa | 0 mm | - | 596 W/m² | - |
| 1788172832 | 26.11° C | 69% | 1018 hPa | 0 mm | - | 592 W/m² | - |
| 1788172230 | 26.11° C | 69% | 1018 hPa | 0 mm | - | 590 W/m² | - |
| 1788171628 | 26.67° C | 67% | 1018 hPa | 0 mm | - | 585 W/m² | - |
| 1788171025 | 26.67° C | 67% | 1018.1 hPa | 0 mm | - | 575 W/m² | - |
| 1788170423 | 26.11° C | 65% | 1018.1 hPa | 0 mm | - | 562 W/m² | - |
| 1788169820 | 25.56° C | 68% | 1018.1 hPa | 0 mm | - | 549 W/m² | - |
| 1788169218 | 25.56° C | 67% | 1018.2 hPa | 0 mm | - | 538 W/m² | - |
| 1788168615 | 25.56° C | 67% | 1018.1 hPa | 0 mm | - | 525 W/m² | - |
| 1788168033 | 25° C | 68% | 1018.3 hPa | 0 mm | - | 507 W/m² | - |
| 1788167431 | 25° C | 68% | 1018.3 hPa | 0 mm | - | 486 W/m² | - |
| 1788166828 | 25° C | 68% | 1018.3 hPa | 0 mm | - | 462 W/m² | - |
| 1788166226 | 25° C | 66% | 1018.2 hPa | 0 mm | - | 441 W/m² | - |
| 1788165623 | 25° C | 67% | 1018.2 hPa | 0 mm | - | 422 W/m² | - |
| 1788165021 | 25° C | 67% | 1018.1 hPa | 0 mm | - | 404 W/m² | - |
| 1788164419 | 24.44° C | 69% | 1018 hPa | 0 mm | - | 380 W/m² | - |
| 1788163816 | 24.44° C | 71% | 1018.1 hPa | 0 mm | - | 354 W/m² | - |
| 1788163234 | 24.44° C | 71% | 1018 hPa | 0 mm | - | 330 W/m² | - |
| 1788162631 | 23.89° C | 70% | 1017.9 hPa | 0 mm | - | 312 W/m² | - |
| 1788162029 | 22.78° C | 71% | 1017.8 hPa | 0 mm | - | 295 W/m² | - |
| 1788161427 | 23.89° C | 70% | 1017.6 hPa | 0 mm | - | 279 W/m² | - |
| 1788160825 | 23.33° C | 69% | 1017.7 hPa | 0 mm | - | 261 W/m² | - |
* Rain latest hour (hover to see other rain measurements)
** Current wind speed in m/s (hover to see current wind gust speed)